#timestamp,LO_Frequency,Hit,StdDev 
1456423215.7,286047008.8,N
1456423235.6,286047005.2,N
1456423255.4,286047003.8,N
1456423275.2,286047004.3,N
1456423295.0,286046999.7,N
1456423296.0,286046999.7,N
1456423315.8,286047003.5,N
1456423335.6,286047003.2,N
1456423355.4,286047003.4,N
1456423375.3,286047005.1,N
1456423395.1,286047001.3,N
1456423415.8,286047004.4,N
1456423435.7,286047004.2,N
1456423455.5,286047002.9,N
1456423475.3,286047002.9,N
1456423495.2,286047003.3,N
1456423515.9,286047003.3,N
1456423535.7,286047007.2,N
1456423555.6,286047004.6,N
1456423575.4,286047007.4,N
1456423595.2,286047007.3,N
1456423615.1,286047010.2,Y
1456423616.0,286047010.2,P
1456423635.8,286047008.6,N
1456423655.6,286047009.5,P
1456423675.5,286047009.5,Y
1456423695.3,286047004.5,P
1456423715.1,286047001.3,N
1456423735.9,286046999.9,N
1456423755.7,286047002.1,N
1456423775.5,286047003.2,N
1456423795.3,286047002.1,N
1456423815.2,286047002.4,N
1456423835.0,286047000.9,N
1456423835.9,286047000.9,N
1456423855.7,286046999.9,N
1456423875.6,286046998.1,N
1456423895.4,286047000.8,N
1456423915.2,286047002.0,N
1456423935.1,286046998.3,N
1456423936.0,286046998.3,N
1456423955.8,286046997.6,N
1456423975.6,286046996.5,N
1456423995.5,286046999.4,N
1456424015.3,286046998.3,N
1456424035.1,286046995.6,N
1456424055.9,286046991.9,N
1456424075.7,286046990.6,N
1456424095.5,286046990.7,N
1456424115.3,286046989.4,N
1456424135.2,286046989.0,N
1456424155.0,286046990.6,N
1456424155.9,286046990.6,N
1456424175.7,286046991.5,N
1456424195.6,286046991.2,N
1456424215.4,286046990.6,N
1456424235.2,286046992.2,N
1456424255.1,286046991.0,N
1456424256.0,286046991.0,N
1456424275.8,286046991.4,N
1456424295.6,286046989.3,N
1456424315.5,286046987.1,N
1456424335.3,286046987.9,N
1456424355.1,286046987.4,N
1456424375.9,286046985.3,Y
1456424395.7,286046992.0,P
1456424415.5,286046994.8,P
1456424435.4,286046996.2,P
1456424455.2,286046996.9,N
1456424475.0,286046997.9,N
1456424475.9,286046997.9,N
1456424495.8,286046999.1,N
1456424515.6,286046996.7,N
1456424535.4,286046996.8,N
1456424555.3,286046998.2,N
1456424575.1,286047002.2,N
1456424576.0,286047002.2,N
1456424595.8,286047002.9,N
1456424615.6,286047002.3,N
1456424635.5,286047003.1,N
1456424655.3,286047007.1,N
1456424675.1,286047005.5,N
1456424695.9,286047004.7,N
1456424715.7,286047005.8,N
1456424735.5,286047007.0,N
1456424755.4,286047005.3,N
1456424775.2,286047003.6,N
1456424795.0,286047001.8,N
1456424795.9,286047001.8,N
1456424815.8,286047002.3,N
1456424835.6,286046999.8,N
1456424855.4,286047002.2,N
1456424875.3,286047004.0,N
1456424895.1,286047007.2,N
1456424896.0,286047007.2,N
1456424915.8,286047005.6,N
1456424935.6,286047003.3,N
1456424955.5,286047003.6,N
1456424975.3,286047004.4,N
1456424995.1,286047004.0,N
1456425015.9,286047002.0,N
1456425035.7,286046999.9,N
1456425055.5,286047000.9,N
1456425075.4,286046998.4,N
1456425095.2,286046999.2,N
1456425115.0,286046998.1,N
1456425115.9,286046998.1,N
1456425135.8,286046998.5,N
1456425155.6,286047002.2,N
1456425175.4,286046999.8,N
1456425195.3,286047002.8,N
1456425215.1,286046999.7,N
1456425216.0,286046999.7,N
1456425235.8,286047000.9,N
1456425255.7,286046998.9,N
1456425275.5,286047000.8,N
1456425295.3,286046998.5,N
1456425315.2,286047001.1,N
1456425335.9,286046998.5,N
1456425355.7,286046997.0,N
1456425375.5,286046999.4,N
1456425395.4,286046999.1,N
1456425415.2,286047000.3,N
1456425435.0,286046999.4,N
1456425435.9,286046999.4,N
1456425455.8,286046999.2,N
1456425475.6,286046998.6,N
1456425495.4,286047000.5,N
1456425515.3,286047002.8,N
1456425535.1,286046998.4,N
1456425555.8,286046993.7,Y
1456425575.7,286046995.4,P
1456425595.5,286046996.5,N
1456425615.3,286046997.3,N
1456425635.2,286046996.1,N
1456425655.9,286046997.1,N
1456425675.7,286046997.2,N
1456425695.6,286046999.6,N
1456425715.4,286046998.8,N
1456425735.2,286046995.9,N
1456425755.1,286046992.0,Y
1456425756.0,286046992.0,P
1456425775.8,286046995.7,N
1456425795.6,286046993.9,N
1456425815.5,286046994.9,N
1456425835.3,286046993.5,Y
1456425855.1,286046998.1,P
1456425875.9,286047001.2,N
1456425895.7,286047001.5,N
1456425915.5,286047000.2,N
1456425935.4,286047001.1,N
1456425955.2,286047001.0,N
1456425975.0,286046999.0,N
1456425975.9,286046999.0,N
1456425995.7,286046998.6,N
1456426015.6,286047001.0,N
1456426035.4,286047002.8,N
1456426055.2,286047001.2,N
1456426075.1,286046999.8,N
1456426076.0,286046999.8,N
1456426095.8,286046999.9,N
1456426115.6,286046999.0,N
1456426135.5,286046999.5,N
1456426155.3,286046998.2,N
1456426175.1,286047000.2,N
1456426195.9,286047001.0,N
1456426215.7,286046998.6,N
1456426235.5,286047003.9,N
1456426255.4,286046999.7,N
1456426275.2,286047000.6,N
1456426295.0,286047002.1,N
1456426295.9,286047002.1,N
1456426315.7,286047001.4,N
1456426335.6,286047004.1,N
1456426355.4,286047001.7,N
1456426375.2,286047002.8,N
1456426395.1,286047001.0,N
1456426396.0,286047001.0,N
1456426415.8,286047001.1,N
1456426435.6,286046999.7,N
1456426455.5,286047005.5,Y
1456426475.3,286047004.4,P
1456426495.1,286047000.1,N
1456426515.9,286047000.6,N
1456426535.7,286047000.7,N
1456426555.5,286047000.4,N
1456426575.4,286047004.1,N
1456426595.2,286047007.4,Y
1456426615.0,286047002.9,P
1456426615.9,286047002.9,P
1456426635.8,286047001.4,N
1456426655.6,286047000.7,N
1456426675.4,286047000.2,N
1456426695.3,286047001.9,N
1456426715.1,286047003.6,Y
1456426716.0,286047003.6,P
1456426735.8,286046998.2,N
1456426755.7,286047004.1,N
1456426775.5,286047003.5,N
1456426795.3,286047004.5,N
